Weather History for Bryce Canyon, UT

Change the Weather History Date:

Sunday, November 6, 2011

  Actual Average Record
Temperature  
Mean Temperature 17 °F -  
Max Temperature 28 °F 50 °F 64 °F (2012)
Min Temperature 6 °F 22 °F 5 °F (1961)
Degree Days  
Heating Degree Days 48    
Moisture  
Dew Point 18 °F    
Average Humidity 84    
Maximum Humidity 100    
Minimum Humidity 69    
Precipitation  
Precipitation 0.03 in - - ()
Sea Level Pressure  
Sea Level Pressure 29.93 in    
Wind  
Wind Speed 6 mph (SE)    
Max Wind Speed 15 mph    
Max Gust Speed -    
Visibility 4 miles    
Events Snow    
Averages and records for this station are not official NWS values.
T = Trace of Precipitation, MM = Missing Value Source: NWS Daily Summary

Daily Weather History Graph

Daily Weather History Graph

Search for Another Location

Airport:

Trip Planner

Search our weather history database for the weather conditions in past years. The results will help you decide how hot, cold, wet, or windy it might be!

Date:

Astronomy

Nov. 06, 2011 Rise Set
Actual Time 6:58 AM MST 5:25 PM MST
Civil Twilight 6:31 AM MST 5:52 PM MST
Nautical Twilight 6:00 AM MST 6:23 PM MST
Astronomical Twilight 5:29 AM MST 6:54 PM MST
Moon 3:07 PM MST (11/6) 3:12 AM MST (11/6)
Length of Visible Light 11h 21m
Length of Day
10h 26m
Waxing Gibbous, 86% of the Moon is Illuminated
Nov 6
Waxing Gibbous
Nov 10
Full
Nov 18
Last Quarter
Nov 24
New
Dec 2
First Quarter

Hourly Weather History & Observations

Time (MST) Temp. Windchill Dew Point Humidity Pressure Visibility Wind Dir Wind Speed Gust Speed Precip Events Conditions
12:53 AM 19.0 °F - 12.9 °F 77% 29.88 in 10.0 mi Calm Calm - N/A   Scattered Clouds
1:53 AM 15.1 °F 9.4 °F 9.0 °F 77% 29.90 in 10.0 mi ESE 3.5 mph - N/A   Clear
1:53 AM 12.0 °F - 8.1 °F 84% 29.92 in 10.0 mi Calm Calm - N/A   Clear
2:53 AM 10.9 °F - 6.1 °F 81% 29.92 in 10.0 mi Calm Calm - N/A   Clear
3:53 AM 9.0 °F - 5.0 °F 84% 29.92 in 10.0 mi Calm Calm - N/A   Clear
4:53 AM 8.1 °F - 3.9 °F 83% 29.95 in 10.0 mi Calm Calm - N/A   Clear
5:53 AM 7.0 °F - 3.0 °F 84% 29.97 in 10.0 mi Calm Calm - N/A   Clear
6:53 AM 6.1 °F -0.9 °F 1.9 °F 83% 30.00 in 10.0 mi West 3.5 mph - N/A   Clear
7:30 AM 10.4 °F 4.0 °F 6.8 °F 85% 29.93 in 10.0 mi SW 3.5 mph - N/A   Mostly Cloudy
7:53 AM 12.9 °F 5.2 °F 9.0 °F 84% 30.01 in 4.0 mi SSW 4.6 mph - N/A   Overcast
8:53 AM 19.0 °F - 15.1 °F 85% 29.97 in 10.0 mi Calm Calm - N/A   Overcast
9:53 AM 24.1 °F 15.2 °F 17.1 °F 75% 29.94 in 10.0 mi SE 8.1 mph - N/A   Overcast
10:53 AM 26.1 °F 15.6 °F 19.0 °F 75% 29.93 in 10.0 mi SE 11.5 mph - N/A   Overcast
11:11 AM 26.6 °F 16.8 °F 19.4 °F 74% 29.96 in 10.0 mi SE 10.4 mph - N/A   Overcast
11:53 AM 26.1 °F 16.8 °F 18.0 °F 71% 29.95 in 10.0 mi SE 9.2 mph - N/A   Overcast
12:53 PM 27.0 °F 17.3 °F 19.0 °F 72% 29.95 in 10.0 mi SE 10.4 mph - N/A   Overcast
1:53 PM 27.0 °F 18.7 °F 18.0 °F 69% 29.94 in 10.0 mi SE 8.1 mph - N/A   Overcast
2:26 PM 26.6 °F 15.2 °F 19.4 °F 74% 29.91 in 7.0 mi SE 13.8 mph - 0.00 in Snow Light Snow
2:53 PM 27.0 °F 16.7 °F 19.0 °F 72% 29.94 in 7.0 mi SSE 11.5 mph - 0.00 in Snow Light Snow
3:28 PM 28.4 °F 17.0 °F 21.2 °F 74% 29.90 in 2.0 mi SE 15.0 mph - 0.00 in Snow Light Snow
3:51 PM 26.6 °F 16.8 °F 21.2 °F 80% 29.91 in 2.0 mi SSE 10.4 mph - 0.00 in Snow Light Snow
3:53 PM 27.0 °F 16.1 °F 21.0 °F 78% 29.96 in 2.0 mi SSE 12.7 mph - 0.00 in Snow Light Snow
4:00 PM 26.6 °F 18.2 °F 21.2 °F 80% 29.91 in 1.5 mi SSE 8.1 mph - 0.00 in Snow Light Snow
4:27 PM 26.6 °F 17.5 °F 21.2 °F 80% 29.91 in 2.0 mi SE 9.2 mph - 0.00 in Snow Light Snow
4:29 PM 26.6 °F 16.8 °F 21.2 °F 80% 29.91 in 1.8 mi SSE 10.4 mph - 0.00 in Snow Light Snow
4:44 PM 26.6 °F 16.8 °F 23.0 °F 86% 29.92 in 2.0 mi SSE 10.4 mph - 0.00 in Snow Light Snow
4:53 PM 25.0 °F 14.8 °F 21.9 °F 88% 29.98 in 3.0 mi SSE 10.4 mph - 0.00 in Snow Light Snow
5:01 PM 24.8 °F 16.1 °F 21.2 °F 86% 29.92 in 2.0 mi SE 8.1 mph - 0.00 in Snow Light Snow
5:14 PM 24.8 °F 16.9 °F 21.2 °F 86% 29.92 in 1.2 mi SE 6.9 mph - 0.00 in Snow Light Snow
5:27 PM 24.8 °F 15.3 °F 21.2 °F 86% 29.92 in 0.8 mi SE 9.2 mph - 0.00 in Snow Light Snow
5:34 PM 24.8 °F 16.1 °F 21.2 °F 86% 29.92 in 1.0 mi SE 8.1 mph - 0.00 in Snow Light Snow
5:43 PM 24.8 °F 16.1 °F 21.2 °F 86% 29.92 in 1.2 mi SE 8.1 mph - 0.00 in Snow Light Snow
5:53 PM 24.1 °F 13.7 °F 21.9 °F 91% 29.99 in 1.2 mi SE 10.4 mph - 0.01 in Snow Light Snow
6:23 PM 24.8 °F 16.9 °F 21.2 °F 86% 29.92 in 1.0 mi SE 6.9 mph - 0.01 in Snow Light Snow
6:32 PM 24.8 °F 15.3 °F 21.2 °F 86% 29.92 in 1.0 mi SSE 9.2 mph - 0.01 in Snow Light Snow
6:42 PM 24.8 °F 16.1 °F 21.2 °F 86% 29.92 in 1.2 mi SSE 8.1 mph - 0.01 in Snow Light Snow
6:53 PM 24.1 °F 17.0 °F 21.9 °F 91% 30.01 in 1.2 mi SSE 5.8 mph - 0.01 in Snow Light Snow
7:41 PM 24.8 °F 17.9 °F 21.2 °F 86% 29.93 in 1.0 mi SSE 5.8 mph - 0.03 in Snow Light Snow
8:13 PM 24.8 °F 16.1 °F 21.2 °F 86% 29.93 in 0.8 mi SE 8.1 mph - 0.01 in Snow Light Snow
8:21 PM 24.8 °F 15.3 °F 21.2 °F 86% 29.93 in 1.0 mi SE 9.2 mph - 0.02 in Snow Light Snow
8:34 PM 24.8 °F 14.6 °F 21.2 °F 86% 29.93 in 1.2 mi SE 10.4 mph - 0.02 in Snow Light Snow
8:47 PM 24.8 °F 14.6 °F 21.2 °F 86% 29.93 in 2.0 mi SE 10.4 mph - 0.02 in Snow Light Snow
8:53 PM 24.8 °F 14.0 °F 21.2 °F 86% 29.93 in 3.0 mi SE 11.5 mph - 0.00 in Snow Light Snow
8:58 PM 24.8 °F 13.4 °F 23.0 °F 93% 29.93 in 3.0 mi SE 12.7 mph - 0.00 in Snow Light Snow
9:11 PM 24.8 °F 12.4 °F 23.0 °F 93% 29.93 in 1.8 mi SE 15.0 mph - 0.00 in Snow Light Snow
9:42 PM 24.8 °F 14.6 °F 23.0 °F 93% 29.93 in 2.0 mi SE 10.4 mph - 0.00 in Snow Light Snow
9:50 PM 24.8 °F 14.0 °F 23.0 °F 93% 29.93 in 1.2 mi SE 11.5 mph - 0.00 in Snow Light Snow
9:53 PM 25.0 °F 15.5 °F 23.0 °F 92% 29.91 in 1.5 mi SE 9.2 mph - 0.00 in Snow Light Snow
10:05 PM 24.8 °F 14.6 °F 23.0 °F 93% 29.93 in 2.5 mi SE 10.4 mph - 0.00 in Snow Light Snow
10:22 PM 24.8 °F 16.1 °F 23.0 °F 93% 29.94 in 4.0 mi SSE 8.1 mph - 0.00 in Snow Light Snow
10:27 PM 24.8 °F 16.1 °F 24.8 °F 100% 29.94 in 1.5 mi SSE 8.1 mph - 0.00 in Snow Light Snow
10:53 PM 25.0 °F 20.7 °F 23.0 °F 92% 29.89 in 1.0 mi South 3.5 mph - 0.01 in Snow Light Snow
10:57 PM 24.8 °F - 23.0 °F 93% 29.93 in 0.8 mi Calm Calm - 0.00 in Snow Light Snow